Change the Weather History Date:

Tuesday, March 20, 2012

  Actual Average Record
Temperature  
Mean Temperature 57 °F 46 °F  
Max Temperature 59 °F 57 °F 81 °F (1953)
Min Temperature 55 °F 36 °F 16 °F (1965)
Degree Days  
Heating Degree Days 8 19  
Month to date heating degree days 215 442  
Since 1 July heating degree days 3572 4335  
Cooling Degree Days 0 0  
Month to date cooling degree days 25 0  
Year to date cooling degree days 25 0  
Growing Degree Days 7 (Base 50)    
Moisture  
Dew Point 56 °F    
Average Humidity 97    
Maximum Humidity 100    
Minimum Humidity 93    
Precipitation  
Precipitation 0.52 in 0.08 in 1.30 in (1973)
Month to date precipitation 3.15 1.75  
Year to date precipitation 3.74 4.44  
Sea Level Pressure  
Sea Level Pressure 29.81 in    
Wind  
Wind Speed 7 mph (SE)    
Max Wind Speed 18 mph    
Max Gust Speed 24 mph    
Visibility 7 miles    
Events Rain    
T = Trace of Precipitation, MM = Missing Value Source: NWS Daily Summary

Daily Weather History Graph

Daily Weather History Graph

Search for Another Location

Airport or City:

Trip Planner

Search our weather history database for the weather conditions in past years. The results will help you decide how hot, cold, wet, or windy it might be!

Date:

Astronomy

Mar. 20, 2012 Rise Set
Actual Time 7:21 AM CDT 7:31 PM CDT
Civil Twilight 6:55 AM CDT 7:58 PM CDT
Nautical Twilight 6:24 AM CDT 8:29 PM CDT
Astronomical Twilight 5:52 AM CDT 9:00 PM CDT
Moon 6:03 AM CDT (3/20) 6:00 PM CDT (3/20)
Length of Visible Light 13h 02m
Length of Day
12h 09m
Waning Crescent, 4% of the Moon is Illuminated
Mar 20
Waning Crescent
Mar 22
New
Mar 30
First Quarter
Apr 6
Full
Apr 13
Last Quarter

Hourly Weather History & Observations

Time (CDT) Temp. Dew Point Humidity Pressure Visibility Wind Dir Wind Speed Gust Speed Precip Events Conditions
12:53 AM 55.9 °F 55.0 °F 97% 29.79 in 6.0 mi SSE 10.4 mph - 0.07 in Rain Light Rain
1:53 AM 55.9 °F 55.0 °F 97% 29.73 in 9.0 mi ESE 13.8 mph - 0.07 in Rain Light Rain
2:53 AM 55.9 °F 55.0 °F 97% 29.76 in 10.0 mi SSE 10.4 mph - 0.00 in Rain Light Rain
3:53 AM 55.9 °F 54.0 °F 93% 29.77 in 7.0 mi SE 11.5 mph 17.3 mph 0.05 in Rain Light Rain
4:53 AM 55.9 °F 54.0 °F 93% 29.77 in 10.0 mi SE 13.8 mph - 0.02 in Rain Light Rain
5:12 AM 55.4 °F 53.6 °F 94% 29.77 in 7.0 mi SE 11.5 mph - 0.01 in Rain Light Rain
5:53 AM 55.9 °F 54.0 °F 93% 29.77 in 6.0 mi SSE 10.4 mph 19.6 mph 0.04 in Rain Light Rain
6:53 AM 55.9 °F 54.0 °F 93% 29.78 in 7.0 mi SSE 15.0 mph - 0.04 in Rain Light Rain
7:02 AM 55.4 °F 53.6 °F 94% 29.80 in 6.0 mi SSE 13.8 mph - 0.02 in Rain Light Rain
7:35 AM 55.4 °F 53.6 °F 94% 29.81 in 6.0 mi South 8.1 mph - 0.06 in Rain Light Rain
7:53 AM 55.0 °F 54.0 °F 96% 29.81 in 4.0 mi SSE 6.9 mph - 0.08 in Rain Light Rain
8:15 AM 55.4 °F 55.4 °F 100% 29.82 in 4.0 mi South 5.8 mph - 0.02 in Rain Light Rain
8:17 AM 55.4 °F 55.4 °F 100% 29.82 in 4.0 mi South 6.9 mph - 0.02 in Rain Light Rain
8:40 AM 55.4 °F 55.4 °F 100% 29.83 in 4.0 mi South 3.5 mph - 0.04 in Rain Light Rain
8:53 AM 55.0 °F 55.0 °F 100% 29.83 in 7.0 mi South 4.6 mph - 0.04 in Rain Light Rain
9:48 AM 55.4 °F 55.4 °F 100% 29.82 in 8.0 mi ESE 4.6 mph - 0.02 in Rain Light Rain
9:53 AM 55.9 °F 55.9 °F 100% 29.82 in 8.0 mi ESE 4.6 mph - 0.03 in Rain Light Rain
10:38 AM 57.2 °F 55.4 °F 94% 29.81 in 9.0 mi SE 3.5 mph - 0.00 in Rain Light Rain
10:53 AM 57.0 °F 55.9 °F 96% 29.81 in 9.0 mi SE 4.6 mph - 0.00 in Rain Light Rain
11:42 AM 55.4 °F 55.4 °F 100% 29.79 in 2.5 mi Calm Calm - 0.02 in Rain Light Rain
11:53 AM 57.0 °F 57.0 °F 100% 29.78 in 9.0 mi Calm Calm - 0.02 in Rain Light Rain
12:18 PM 55.4 °F 55.4 °F 100% 29.78 in 2.0 mi Calm Calm - 0.01 in Rain Light Rain
12:53 PM 55.9 °F 55.9 °F 100% 29.76 in 6.0 mi Calm Calm - 0.03 in Rain Light Rain
1:27 PM 55.4 °F 55.4 °F 100% 29.76 in 2.5 mi North 4.6 mph - 0.00 in Rain Light Rain
1:47 PM 57.2 °F 55.4 °F 94% 29.75 in 4.0 mi NNE 6.9 mph - 0.01 in   Overcast
3:53 PM 57.9 °F 57.9 °F 100% 29.78 in 10.0 mi SSW 5.8 mph - 0.00 in Rain Light Rain
4:28 PM 57.2 °F 55.4 °F 94% 29.78 in 10.0 mi Calm Calm - 0.00 in   Overcast
4:58 PM 57.2 °F 55.4 °F 94% 29.80 in 10.0 mi SW 3.5 mph - 0.00 in Rain Light Rain
5:12 PM 59.0 °F 55.4 °F 88% 29.80 in 9.0 mi SSW 3.5 mph - 0.00 in Rain Light Rain
5:28 PM 57.2 °F 55.4 °F 94% 29.80 in 4.0 mi SSE 3.5 mph - 0.01 in Rain Light Rain
6:06 PM 57.2 °F 55.4 °F 94% 29.83 in 2.5 mi South 4.6 mph - 0.03 in Rain Rain
6:16 PM 57.2 °F 57.2 °F 100% 29.83 in 4.0 mi SSE 4.6 mph - 0.04 in Rain Light Rain
6:32 PM 57.2 °F 55.4 °F 94% 29.83 in 6.0 mi South 6.9 mph - 0.06 in Rain Light Rain
6:53 PM 57.0 °F 55.0 °F 93% 29.83 in 8.0 mi South 3.5 mph - 0.07 in Rain Light Rain
7:53 PM 55.9 °F 55.0 °F 97% 29.81 in 10.0 mi East 4.6 mph - 0.01 in   Overcast
8:09 PM 55.4 °F 55.4 °F 100% 29.83 in 10.0 mi East 4.6 mph - N/A   Overcast
8:53 PM 55.9 °F 55.9 °F 100% 29.81 in 8.0 mi East 5.8 mph - N/A   Scattered Clouds
9:35 PM 57.2 °F 55.4 °F 94% 29.84 in 9.0 mi East 6.9 mph - N/A   Overcast
9:44 PM 57.2 °F 55.4 °F 94% 29.86 in 10.0 mi ESE 8.1 mph - N/A   Overcast
9:53 PM 57.0 °F 57.0 °F 100% 29.86 in 10.0 mi ESE 6.9 mph - N/A   Overcast
10:09 PM 57.2 °F 57.2 °F 100% 29.87 in 10.0 mi ESE 6.9 mph - N/A   Overcast
10:53 PM 57.0 °F 57.0 °F 100% 29.85 in 10.0 mi ESE 9.2 mph - N/A   Overcast
11:05 PM 57.2 °F 57.2 °F 100% 29.86 in 10.0 mi ESE 8.1 mph - N/A   Overcast
11:15 PM 57.2 °F 57.2 °F 100% 29.86 in 10.0 mi SE 8.1 mph - N/A   Overcast
11:27 PM 57.2 °F 57.2 °F 100% 29.88 in 10.0 mi SE 5.8 mph - N/A   Overcast
11:53 PM 57.9 °F 57.0 °F 97% 29.88 in 10.0 mi SE 8.1 mph - N/A   Overcast